Regional Weather Roundup
Issued by NWS Charleston, WV

Home | Current Version | Previous Version | Graphics & Text | Print | Product List | Glossary On
Versions: 1 2 3 4 5 6 7 8 9 10 11 12 13 14 15 16 17 18 19 20 21 22 23 24 25 26 27 28 29 30 31 32 33 34 35 36 37 38 39 40 41 42 43 44 45 46 47 48 49 50
000
ASUS41 KRLX 260610
RWRRLX
West Virginia Regional Weather Roundup
National Weather Service Charleston WV
200 AM EDT SUN APR 26 2015

Note: "fair" indicates few or no clouds below 12,000 feet with no
significant weather and/or obstructions to visibility.

WVZ003-260700-
Northern Panhandle of West Virginia

CITY           SKY/WX    TMP DP  RH WIND       PRES   REMARKS
WHEELING       CLOUDY    43  38  82 CALM      29.66F
$$

WVZ009-260700-
Northwest West Virginia

CITY           SKY/WX    TMP DP  RH WIND       PRES   REMARKS
PARKERSBURG    CLOUDY    43  40  89 N7        29.69S
$$

WVZ006-260700-
Western West Virginia

CITY           SKY/WX    TMP DP  RH WIND       PRES   REMARKS
HUNTINGTON     CLOUDY    44  43  96 N7        29.62R
$$

WVZ015-260700-
West Central West Virginia

CITY           SKY/WX    TMP DP  RH WIND       PRES   REMARKS
CHARLESTON     LGT RAIN  45  44  97 NE6       29.59F FOG
$$

WVZ022-031-260700-
North Central West Virginia

CITY           SKY/WX    TMP DP  RH WIND       PRES   REMARKS
CLARKSBURG     CLOUDY    42  38  85 E7        29.65S
MORGANTOWN     CLOUDY    42  36  79 CALM      29.67S
$$

WVZ025-035-042-045-260700-
Southern West Virginia

CITY           SKY/WX    TMP DP  RH WIND       PRES   REMARKS
BECKLEY        RAIN      46  44  93 SE6       29.57S FOG
LOGAN          FOG       48  48 100 MISG      29.53F VSB 1
BLUEFIELD      LGT RAIN  47  43  86 CALM      29.60R FOG
LEWISBURG      RAIN      42  40  95 NE6       29.61F
$$

WVZ047-260700-
Northern Mountains of West Virginia

CITY           SKY/WX    TMP DP  RH WIND       PRES   REMARKS
ELKINS         CLOUDY    42  38  85 E5        29.63S
$$

WVZ052-260700-
Eastern Panhandle of West Virginia

CITY           SKY/WX    TMP DP  RH WIND       PRES   REMARKS
MARTINSBURG    CLOUDY    41  38  89 CALM      29.71R
PETERSBURG     CLOUDY    40  35  83 CALM      29.72R
$$



USA.gov is the U.S. government's official web portal to all federal, state and local government web resources and services.